Location: Moscow
(30.9132°N, 94.8252°W)
Time: 08:32:02
(UTC+00:00)

Cosmos 2278 Rocket - Pass Details

Date: 15 November 2025
Orbit: 841 x 843 km, 71.0° (Epoch: 13 December)

Event Time Altitude Azimuth Distance (km) Brightness Sun altitude
Exits shadow 10:25:34 71° 88° (E) 886 2.3 -30.2°
Drops below altitude 10° 10:30:58 10° 154° (SSE) 2,450 4.9 -29.0°
Sets 10:33:25 0° 156° (SSE) 3,382 5.7 -28.5°
